Regional Weather Roundup
Issued by NWS Goodland, KS

Home | Current Version | Previous Version | Graphics & Text | Print | Product List | Glossary On
Versions: 1 2 3 4 5 6 7 8 9 10 11 12 13 14 15 16 17 18 19 20 21 22 23 24 25 26 27 28 29 30 31 32 33 34 35 36 37 38 39 40 41 42 43 44 45 46 47 48 49 50
000
ASUS43 KGLD 181259
RWRGLD

GOODLAND FORECAST AREA HOURLY WEATHER ROUNDUP
NATIONAL WEATHER SERVICE GOODLAND KS
600 AM MST WED JAN 18 2017

...OFFICIAL OBSERVATIONS...

CITY           SKY/WX    TMP DP  RH WIND       PRES   REMARKS
GOODLAND KS    CLOUDY    22  20  92 W7        29.94S
HILL CITY KS   CLOUDY    29  28  96 CALM      30.00R
IMPERIAL NEB   CLOUDY    22  19  89 CALM      29.95S
MCCOOK NEB     CLOUDY    23  22  96 S6        29.96S
AKRON CO       CLOUDY    22  14  71 W14       29.93R WCI   9
BURLINGTON CO  CLOUDY    25  22  88 W10       29.93S WCI  15
LIMON CO       CLOUDY    10   7  87 N6        29.94F
$$

...UNOFFICIAL OBSERVATIONS...

CITY           SKY/WX    TMP DP  RH WIND       PRES   REMARKS
LENORA KS        N/A     33  32  96 CALM        N/A
NORTON KS      CLEAR     28  25  86 SW5       29.97
SHARON SPRINGS   N/A     27  25  92 W6          N/A
TRENTON NEB      N/A     25  32 100 NW5         N/A
KIT CARSON CO    N/A     20  18  90 CALM        N/A
YUMA CO        FAIR      14  10  85 W14       29.94R WCI  -1
$$




USA.gov is the U.S. government's official web portal to all federal, state and local government web resources and services.